Wind_Speed
6 7 7 7 8 9 9 10 9 9 9 8 8 9 9 9 10 10 10 10 10 10 9 9 9 9 8 8 8 8 8 8 8 8 8 8 8 7 6 5 5 5 5
5 6 7 8 9 10 11 11 11 11 10 9 9 9 10 10 10 10 11 10 10 10 9 8 8 8 7 7 7 7 7 7 7 7 7 7 7 6 6 5 5 5 5
7 7 8 9 10 11 12 13 13 12 11 10 10 10 10 10 10 11 11 10 9 9 8 8 7 6 6 6 6 6 6 6 6 6 6 7 6 6 6 6 5 5 6
10 9 9 10 11 12 13 13 13 13 12 12 11 10 10 10 10 10 10 9 8 8 7 6 5 5 5 5 5 6 6 6 6 6 7 7 7 7 7 7 6 6 6
12 11 10 10 11 12 13 13 14 14 13 13 11 10 10 10 10 9 8 8 7 6 5 4 4 4 4 4 5 5 5 5 6 7 7 7 7 7 8 8 8 8 8
11 11 10 10 11 12 13 14 14 14 14 13 11 10 10 9 8 8 7 6 6 5 4 3 3 3 3 4 5 5 5 6 7 7 8 8 8 8 9 9 9 9 9
9 10 11 11 11 12 13 13 14 14 14 12 11 10 9 9 8 7 6 5 5 4 3 3 2 3 3 4 5 5 5 6 7 7 8 8 8 8 9 9 10 9 9
8 9 10 11 11 12 13 13 13 13 13 12 11 11 9 8 7 6 6 5 4 4 3 3 3 3 3 4 5 5 5 6 7 7 8 8 8 8 9 9 9 9 9
8 8 10 10 11 12 13 13 13 13 13 12 12 11 9 8 7 6 6 5 4 4 4 3 3 3 4 4 5 5 5 6 7 8 8 8 8 9 9 8 9 9 9
8 9 10 10 11 12 13 13 14 13 13 13 12 11 10 8 7 7 6 5 4 4 4 4 4 4 4 5 5 5 6 7 7 7 8 8 8 9 9 8 9 9 9
10 10 10 11 12 12 13 13 13 13 13 13 12 11 10 9 8 7 7 6 5 5 5 5 5 5 5 5 6 6 6 7 8 8 8 9 9 10 10 9 10 10 9
10 10 10 11 12 12 13 14 14 14 14 13 12 11 10 9 9 8 7 7 6 6 6 6 6 6 7 7 7 7 7 8 9 10 10 10 10 11 11 11 11 11 11
10 9 10 11 11 12 13 14 14 14 14 13 12 12 11 10 9 8 8 8 7 7 7 7 8 8 8 9 9 9 9 10 11 11 11 11 11 12 13 13 13 13 13
10 10 10 10 11 12 13 14 14 14 15 14 13 12 12 11 10 9 9 9 8 8 9 9 9 10 11 12 13 13 12 13 13 13 13 13 13 14 15 15 15 15 15
11 11 11 11 11 13 13 14 15 15 15 14 13 13 13 12 12 11 11 10 10 10 10 11 12 13 14 15 16 16 16 16 16 15 15 16 15 16 17 17 18 18 17
12 12 13 12 12 13 14 14 15 15 15 15 14 14 14 14 13 13 12 12 12 12 13 13 15 16 16 17 18 19 19 19 18 18 18 19 18 19 19 20 20 20 20
14 14 14 13 13 14 14 15 15 16 16 16 15 15 15 15 14 14 14 14 14 15 15 16 17 17 18 20 21 21 22 21 20 21 21 21 22 21 21 22 22 23 23
16 16 16 14 15 15 15 16 16 16 16 16 16 16 16 16 16 15 16 16 16 17 18 19 20 20 20 21 23 23 23 23 22 22 23 23 23 23 24 24 25 25 25
19 19 19 18 17 17 17 17 17 17 17 17 17 17 17 17 17 17 18 18 19 20 21 21 22 22 22 23 24 24 23 23 23 23 24 24 25 24 25 26 26 27 27
22 23 24 21 19 19 19 19 18 18 18 18 18 19 19 19 19 19 20 20 21 22 24 24 25 24 24 25 25 25 24 24 24 24 24 24 25 25 26 28 29 30 30
27 27 26 23 21 20 20 20 20 19 20 20 19 19 19 20 21 21 22 23 24 25 26 27 28 27 26 25 25 24 24 24 25 25 25 25 26 27 28 28 30 31 32
32 31 27 25 24 23 22 22 22 21 20 20 20 20 21 22 23 25 25 25 26 27 27 26 26 26 26 25 25 25 24 25 25 25 25 26 28 28 29 30 32 33 34
33 31 30 27 25 24 25 24 22 21 20 21 21 22 23 24 25 25 26 27 28 29 27 27 27 27 26 27 28 26 26 26 26 26 26 27 28 30 31 32 33 35 37
31 31 30 29 28 27 26 25 25 24 24 24 24 25 25 26 26 27 28 29 29 28 27 27 28 28 27 26 27 27 26 26 27 27 28 30 31 32 34 36 37 38 40
33 34 32 30 29 27 26 27 27 27 26 25 26 27 26 26 26 27 28 29 29 27 26 25 26 26 26 26 26 27 27 28 28 30 31 32 34 36 38 39 42 43 44
33 31 30 29 28 27 27 28 28 28 27 27 27 27 26 27 28 28 29 28 28 27 26 25 25 26 27 28 28 29 29 31 31 32 33 34 36 38 40 42 44 45 47
Wind_Direction
240 236 228 227 231 236 239 243 247 251 256 261 268 276 283 287 288 288 287 285 284 284 283 281 280 280 281 282 284 285 285 285 284 281 278 276 275 274 271 268 270 271 273
258 261 248 242 242 245 248 249 251 252 256 262 266 272 276 281 284 285 286 286 286 286 285 284 283 282 282 284 288 290 291 291 287 281 277 274 273 272 270 268 270 271 270
275 277 263 257 253 252 254 255 255 254 256 260 263 268 272 276 280 283 285 285 285 285 285 285 285 286 287 290 294 297 299 297 291 284 280 275 274 275 274 271 272 269 270
277 280 273 268 262 258 256 257 258 256 256 257 260 265 269 273 277 281 283 283 282 283 284 284 287 291 295 297 301 305 305 301 295 289 286 282 282 282 280 276 273 271 271
272 275 275 270 264 261 259 259 258 257 256 255 257 261 264 268 273 277 277 276 276 278 279 280 286 295 303 307 310 311 309 302 293 290 286 283 283 283 281 277 273 270 271
264 268 269 266 263 261 260 260 258 256 254 253 254 256 257 261 266 268 268 267 266 265 267 272 285 299 309 314 315 314 310 301 291 289 286 282 280 280 278 276 273 272 271
259 264 263 261 263 261 259 259 257 253 251 249 249 249 251 255 257 258 257 254 251 252 255 260 277 290 305 315 317 318 317 302 292 288 284 278 276 276 277 275 273 272 271
256 259 263 261 261 260 258 256 254 249 245 242 241 243 246 248 249 249 245 244 243 242 241 251 271 282 303 316 321 325 321 306 295 288 281 277 275 274 275 273 274 272 271
256 261 264 262 258 256 253 251 250 245 239 236 236 238 239 239 240 240 237 238 237 236 240 252 264 281 305 319 329 335 329 316 300 292 286 281 278 276 273 272 272 272 271
252 261 262 261 257 252 249 248 247 242 235 231 232 232 231 233 233 234 234 234 235 239 249 259 267 280 303 319 329 335 335 326 311 301 293 288 283 278 275 274 273 273 271
250 256 258 259 255 246 244 244 242 237 232 228 227 226 227 229 230 233 236 236 240 248 257 265 272 283 299 315 328 335 337 330 316 306 296 289 282 279 279 278 274 271 268
243 248 256 254 250 243 239 236 235 233 230 226 224 223 225 229 231 236 240 242 245 253 264 270 277 286 295 306 317 324 328 325 315 307 303 293 284 277 278 278 276 273 269
237 245 252 249 245 240 235 232 231 229 227 225 222 222 226 229 232 238 245 247 251 258 268 275 281 289 296 302 307 310 314 318 312 305 304 297 288 279 276 276 276 273 271
229 238 245 246 242 236 231 229 228 226 226 223 219 220 225 229 235 242 248 251 257 264 272 280 285 290 294 298 301 305 308 308 306 301 295 291 286 280 277 274 275 273 271
230 235 238 239 239 233 228 227 225 224 223 219 218 221 227 234 239 245 250 254 260 268 277 284 287 289 292 296 300 302 303 303 298 295 292 288 282 280 277 274 273 273 273
230 232 234 233 233 230 227 227 226 224 222 221 221 224 230 236 242 248 252 257 263 270 275 280 286 292 293 293 296 295 295 294 292 290 286 284 281 279 275 274 273 272 272
228 226 229 229 230 230 228 226 226 225 224 225 226 230 234 239 243 249 254 259 265 271 276 280 285 289 293 292 291 293 293 292 288 287 285 282 279 277 273 272 271 271 272
225 225 224 225 226 227 227 226 227 228 228 230 234 237 239 243 247 253 258 263 268 272 275 279 283 286 290 292 292 291 292 291 288 287 285 283 279 275 271 272 270 270 271
232 227 225 224 223 227 227 226 227 228 231 236 241 245 245 247 252 257 262 266 270 274 276 279 283 285 288 290 290 289 291 291 288 285 282 281 278 276 273 271 270 270 270
236 230 228 226 225 227 228 228 229 230 233 238 243 248 247 249 255 261 265 267 270 274 277 277 281 285 288 291 290 288 289 289 287 282 279 279 279 277 274 272 271 271 271
237 233 228 225 225 226 227 228 230 231 234 237 243 248 254 256 258 263 265 269 270 274 275 276 281 283 285 289 289 285 285 288 285 278 277 278 278 276 273 272 272 272 270
239 231 226 227 228 226 228 231 232 234 238 243 247 252 257 260 263 265 267 272 273 275 277 277 282 282 284 287 287 285 282 284 284 282 279 275 274 273 272 273 274 272 272
237 229 228 228 230 233 232 233 236 240 245 248 251 255 258 262 266 268 269 273 276 277 282 279 284 288 284 285 287 286 284 279 278 279 278 275 274 273 272 271 271 271 271
243 237 233 230 234 234 235 238 240 243 246 248 252 256 259 263 268 269 269 271 279 283 286 286 286 288 287 285 283 285 286 283 278 277 277 275 273 275 276 274 273 273 273
252 249 245 235 233 235 238 241 242 243 246 250 255 257 261 266 271 273 273 277 281 286 290 291 292 292 292 291 286 287 288 286 283 280 276 276 276 277 276 275 275 276 276
256 256 248 240 242 244 245 247 250 250 251 255 260 264 268 271 272 277 282 287 287 290 292 294 296 295 292 291 289 288 288 288 285 282 280 277 278 277 276 276 277 277 276
Height
5905 5905 5906 5906 5907 5908 5909 5910 5910 5911 5911 5912 5912 5913 5913 5913 5913 5914 5914 5913 5913 5913 5912 5911 5911 5910 5909 5909 5908 5908 5907 5907 5906 5906 5905 5904 5904 5903 5903 5902 5901 5901 5901
5904 5905 5905 5906 5906 5907 5908 5908 5909 5910 5910 5911 5911 5912 5912 5912 5912 5912 5912 5912 5912 5911 5911 5910 5909 5909 5908 5908 5907 5906 5906 5906 5905 5904 5904 5903 5902 5902 5901 5901 5900 5900 5900
5903 5904 5904 5904 5905 5906 5906 5907 5908 5908 5909 5909 5910 5910 5910 5911 5911 5911 5911 5910 5910 5910 5909 5908 5908 5907 5907 5906 5906 5905 5905 5904 5904 5903 5902 5902 5901 5900 5900 5899 5899 5899 5899
5902 5902 5902 5903 5903 5904 5905 5906 5906 5907 5907 5908 5908 5908 5909 5909 5909 5909 5909 5909 5909 5908 5908 5907 5906 5906 5906 5905 5904 5904 5903 5903 5902 5901 5901 5900 5900 5899 5899 5898 5898 5898 5897
5899 5899 5900 5900 5901 5902 5903 5904 5904 5905 5906 5906 5906 5907 5907 5907 5908 5908 5908 5908 5908 5907 5907 5906 5906 5905 5905 5904 5903 5903 5902 5901 5900 5900 5899 5899 5898 5898 5898 5897 5897 5897 5896
5896 5897 5897 5898 5899 5899 5901 5901 5902 5903 5904 5904 5904 5905 5905 5906 5907 5907 5907 5907 5907 5907 5906 5906 5905 5904 5904 5903 5902 5902 5901 5900 5899 5898 5898 5897 5897 5897 5896 5896 5896 5895 5895
5893 5894 5895 5895 5896 5897 5898 5899 5900 5901 5902 5902 5903 5903 5904 5905 5905 5906 5906 5906 5906 5906 5905 5905 5904 5904 5903 5902 5902 5901 5900 5899 5898 5897 5896 5896 5895 5895 5895 5894 5894 5893 5893
5890 5891 5892 5892 5893 5894 5896 5897 5897 5898 5899 5900 5901 5902 5902 5903 5904 5905 5905 5905 5905 5905 5905 5904 5903 5903 5903 5902 5901 5900 5899 5898 5896 5895 5895 5894 5894 5893 5893 5892 5892 5892 5891
5887 5888 5889 5890 5891 5892 5893 5894 5895 5896 5897 5898 5899 5900 5901 5901 5902 5903 5904 5904 5904 5904 5903 5903 5902 5902 5901 5901 5900 5899 5898 5896 5895 5894 5893 5893 5892 5891 5891 5890 5890 5889 5889
5884 5886 5887 5888 5888 5889 5890 5891 5893 5894 5895 5896 5897 5898 5899 5900 5901 5902 5902 5902 5903 5903 5902 5902 5901 5901 5900 5899 5899 5898 5897 5895 5894 5893 5892 5892 5891 5890 5889 5888 5888 5887 5887
5882 5883 5884 5885 5886 5887 5888 5889 5890 5891 5892 5893 5894 5896 5897 5898 5899 5900 5901 5901 5901 5901 5901 5901 5900 5899 5899 5898 5897 5896 5895 5894 5893 5892 5891 5890 5889 5889 5888 5887 5886 5885 5885
5879 5880 5882 5883 5884 5884 5885 5887 5888 5889 5890 5891 5892 5894 5895 5896 5897 5898 5899 5899 5899 5899 5899 5899 5898 5898 5897 5896 5895 5895 5894 5892 5891 5890 5889 5888 5887 5887 5886 5885 5884 5883 5883
5877 5878 5879 5880 5881 5882 5883 5884 5885 5887 5888 5889 5890 5892 5893 5894 5895 5896 5896 5897 5897 5897 5897 5897 5896 5896 5895 5894 5893 5892 5892 5891 5889 5888 5886 5886 5885 5884 5883 5883 5882 5881 5880
5874 5875 5877 5878 5878 5879 5880 5882 5883 5884 5885 5886 5888 5889 5890 5891 5892 5893 5894 5894 5895 5895 5895 5894 5894 5893 5892 5891 5890 5889 5889 5888 5887 5885 5884 5883 5882 5881 5881 5880 5879 5878 5877
5871 5873 5874 5875 5875 5876 5878 5879 5880 5881 5883 5884 5885 5887 5888 5889 5890 5890 5891 5891 5892 5892 5892 5891 5891 5890 5889 5888 5886 5885 5885 5884 5883 5882 5880 5879 5879 5878 5877 5876 5875 5875 5874
5868 5870 5871 5872 5873 5873 5875 5876 5877 5879 5880 5881 5883 5884 5885 5886 5887 5887 5888 5888 5888 5888 5888 5888 5887 5886 5884 5883 5883 5881 5880 5880 5878 5877 5876 5875 5874 5873 5872 5872 5871 5870 5870
5865 5867 5868 5870 5870 5871 5872 5873 5875 5876 5877 5879 5880 5881 5882 5883 5883 5884 5884 5884 5884 5884 5883 5883 5883 5882 5881 5879 5878 5877 5875 5874 5873 5872 5870 5869 5868 5867 5867 5866 5866 5865 5864
5861 5863 5865 5867 5868 5868 5869 5870 5872 5873 5874 5875 5876 5877 5878 5879 5880 5880 5880 5880 5880 5880 5879 5879 5878 5878 5876 5874 5873 5871 5870 5868 5867 5866 5865 5864 5863 5862 5861 5861 5860 5859 5859
5856 5859 5861 5863 5864 5865 5866 5867 5868 5869 5871 5871 5872 5873 5874 5874 5875 5875 5875 5875 5875 5875 5874 5874 5873 5872 5871 5869 5867 5865 5864 5863 5861 5860 5859 5858 5857 5856 5855 5855 5854 5853 5853
5851 5852 5855 5857 5858 5860 5861 5863 5864 5865 5866 5867 5868 5868 5868 5869 5870 5870 5870 5870 5870 5869 5868 5868 5867 5866 5865 5863 5861 5860 5858 5857 5855 5854 5853 5852 5851 5850 5849 5848 5847 5847 5846
5845 5846 5847 5850 5852 5855 5856 5858 5860 5861 5861 5862 5863 5862 5863 5863 5864 5864 5864 5864 5864 5863 5862 5861 5861 5859 5858 5857 5856 5854 5853 5851 5849 5848 5847 5846 5845 5843 5843 5842 5841 5840 5839
5839 5839 5840 5842 5845 5848 5850 5852 5854 5855 5856 5857 5858 5858 5858 5858 5858 5858 5858 5858 5858 5856 5855 5855 5854 5853 5852 5850 5849 5847 5846 5846 5843 5841 5840 5839 5838 5837 5836 5835 5834 5832 5831
5828 5830 5831 5835 5837 5840 5843 5845 5848 5850 5851 5851 5852 5852 5852 5851 5852 5852 5852 5852 5851 5850 5848 5848 5847 5846 5845 5843 5842 5841 5839 5839 5837 5835 5833 5832 5831 5829 5828 5827 5826 5824 5822
5824 5826 5825 5827 5831 5834 5836 5839 5841 5843 5844 5845 5845 5845 5846 5846 5846 5846 5845 5844 5844 5843 5842 5841 5840 5839 5837 5836 5835 5834 5832 5831 5830 5829 5827 5825 5823 5821 5820 5818 5817 5815 5813
5819 5820 5820 5822 5824 5828 5830 5832 5834 5835 5836 5837 5838 5838 5838 5838 5838 5838 5837 5837 5836 5835 5834 5833 5832 5831 5830 5829 5828 5826 5825 5823 5822 5821 5819 5817 5815 5813 5811 5809 5807 5805 5803
5814 5814 5815 5816 5818 5821 5823 5825 5827 5828 5829 5830 5830 5830 5830 5831 5831 5831 5830 5829 5828 5827 5826 5825 5824 5823 5822 5821 5820 5818 5816 5815 5813 5811 5809 5807 5805 5803 5801 5798 5796 5793 5791